TimeMST,TemperatureF,Dew PointF,Humidity,Sea Level PressureIn,VisibilityMPH,Wind Direction,Wind SpeedMPH,Gust SpeedMPH,PrecipitationIn,Events,Conditions,WindDirDegrees,DateUTC
12:53 AM,-8.0,-11.0,86,30.22,8.0,WSW,5.8,-,N/A,,Clear,250,2012-12-28 07:53:00
1:53 AM,-9.0,-13.0,83,30.22,8.0,West,5.8,-,N/A,,Clear,260,2012-12-28 08:53:00
2:53 AM,-9.0,-13.0,83,30.22,8.0,SW,9.2,-,N/A,,Clear,230,2012-12-28 09:53:00
3:53 AM,-11.9,-16.1,82,30.22,8.0,WSW,6.9,-,N/A,,Clear,250,2012-12-28 10:53:00
4:53 AM,-8.0,-11.9,83,30.21,8.0,WSW,11.5,-,N/A,,Clear,250,2012-12-28 11:53:00
5:53 AM,-9.9,-15.0,78,30.23,8.0,WSW,4.6,-,N/A,,Clear,240,2012-12-28 12:53:00
6:53 AM,-11.0,-15.0,83,30.24,8.0,WSW,6.9,-,N/A,,Clear,250,2012-12-28 13:53:00
7:53 AM,-7.1,-11.0,83,30.23,5.0,WSW,6.9,-,N/A,,Clear,250,2012-12-28 14:53:00
9:53 AM,1.9,-0.9,88,30.25,6.0,WSW,5.8,-,N/A,,Clear,240,2012-12-28 16:53:00
10:53 AM,10.9,7.0,84,30.23,8.0,SW,5.8,-,N/A,,Clear,220,2012-12-28 17:53:00
11:53 AM,18.0,10.9,74,30.19,9.0,WSW,6.9,-,N/A,,Mostly Cloudy,250,2012-12-28 18:53:00
12:53 PM,19.9,12.9,74,30.18,10.0,Calm,Calm,-,N/A,,Mostly Cloudy,0,2012-12-28 19:53:00
1:53 PM,21.9,15.1,75,30.18,9.0,SSW,4.6,-,N/A,,Scattered Clouds,210,2012-12-28 20:53:00
2:53 PM,21.9,15.1,75,30.19,10.0,WSW,4.6,-,0.02,,Clear,250,2012-12-28 21:53:00
3:53 PM,21.0,12.9,71,30.21,9.0,Calm,Calm,-,N/A,,Clear,0,2012-12-28 22:53:00
4:20 PM,21.2,14.0,74,29.98,9.0,WNW,18.4,-,N/A,,Partly Cloudy,290,2012-12-28 23:20:00
4:53 PM,19.0,12.9,77,30.21,10.0,West,16.1,-,N/A,,Clear,280,2012-12-28 23:53:00
5:53 PM,17.1,12.0,81,30.24,10.0,Variable,4.6,-,N/A,,Scattered Clouds,0,2012-12-29 00:53:00
6:53 PM,23.0,17.1,78,30.25,10.0,WNW,13.8,-,N/A,,Overcast,300,2012-12-29 01:53:00
7:53 PM,21.9,17.1,82,30.25,10.0,West,12.7,-,N/A,,Overcast,270,2012-12-29 02:53:00
8:53 PM,21.0,15.1,78,30.26,10.0,West,12.7,-,N/A,,Mostly Cloudy,280,2012-12-29 03:53:00
10:53 PM,12.9,9.0,84,30.28,10.0,WSW,9.2,-,N/A,,Clear,250,2012-12-29 05:53:00
11:53 PM,10.9,7.0,84,30.27,10.0,WSW,13.8,-,N/A,,Clear,240,2012-12-29 06:53:00